Temperature
8 9 9 9 9 9 9 9 9 9 10 10 10 10 10 10 10 11 10 11 11 11 11 11 11 11 11 10 10 10 10 10 9 8 7 7 7 7 7 7 7 7 7
8 8 8 8 8 8 8 8 9 9 9 9 9 9 9 9 10 10 10 10 10 10 10 10 10 10 10 10 10 9 9 9 9 8 7 7 6 6 6 6 7 7 7
7 7 8 8 8 8 8 8 8 8 8 8 8 8 8 8 9 9 9 9 9 9 9 9 9 9 9 9 9 9 9 9 9 8 7 7 7 7 7 7 7 7 7
7 7 7 7 7 7 7 7 7 7 7 8 8 8 7 7 8 8 8 8 9 9 8 9 9 9 9 9 9 8 8 8 8 8 7 7 7 7 7 7 7 7 7
6 6 6 6 6 7 6 6 7 7 7 7 7 7 7 7 7 7 7 8 8 8 8 8 8 8 8 8 8 8 8 8 8 8 8 8 7 7 8 8 8 7 7
6 6 6 6 6 6 6 6 6 6 6 6 6 6 7 7 7 7 7 7 7 7 7 7 7 7 8 8 8 8 7 8 8 8 8 8 7 7 7 8 8 8 8
6 6 6 6 6 6 6 6 6 6 6 6 6 6 6 6 6 7 7 7 7 7 7 7 7 7 7 7 7 7 7 7 7 7 8 7 7 7 7 7 7 8 7
6 6 5 5 5 5 5 5 5 5 5 5 5 5 5 6 6 6 7 6 6 6 6 6 6 7 7 7 7 7 7 7 7 7 7 7 7 6 7 7 7 7 7
6 5 5 5 5 5 5 5 5 5 5 5 5 5 5 5 6 6 6 6 6 6 6 6 7 7 7 7 7 7 7 7 7 7 7 7 7 7 7 7 7 8 8
6 5 5 5 5 5 5 5 5 5 5 5 5 5 5 5 6 6 6 6 6 6 6 6 6 6 6 6 6 7 6 6 6 7 7 7 7 7 7 7 7 8 8
5 5 5 5 5 5 5 5 5 5 5 5 5 5 5 5 5 6 6 6 6 7 7 6 6 6 6 6 6 6 6 6 7 7 7 7 7 7 7 7 7 7 7
5 5 5 5 5 5 5 5 5 5 5 5 5 5 5 5 5 6 6 6 6 6 6 6 6 6 6 6 6 6 7 7 7 7 8 8 7 7 7 7 7 7 7
5 5 5 5 5 5 5 5 5 5 6 6 6 5 5 5 5 5 6 6 6 6 6 6 6 6 6 6 6 6 7 7 7 8 8 7 7 7 7 7 7 7 7
5 5 5 5 5 5 5 5 5 6 6 6 6 6 6 6 5 5 6 6 6 6 6 6 6 6 6 6 6 7 7 7 7 7 7 7 7 7 7 7 7 7 8
5 5 5 5 5 5 5 5 5 5 5 6 6 6 6 6 5 5 6 6 6 6 6 6 7 7 7 7 7 7 7 7 7 7 7 7 7 7 7 7 7 8 8
5 5 5 5 5 5 5 5 5 5 5 5 5 5 5 5 5 5 5 6 6 6 6 7 7 7 7 7 7 7 7 7 7 7 7 7 7 7 8 8 8 8 8
5 5 6 6 6 6 6 5 5 5 5 5 5 5 5 5 5 5 5 6 6 6 7 7 7 7 7 7 7 7 7 6 6 7 7 7 7 7 7 8 8 8 8
6 6 6 6 6 6 6 6 6 6 6 5 5 5 5 5 5 5 5 6 6 6 7 7 7 6 6 6 7 7 7 7 7 7 7 7 7 7 7 7 8 7 8
6 6 6 6 6 6 6 6 6 6 6 6 6 6 5 5 6 6 6 6 7 7 7 6 6 6 6 6 6 6 6 6 6 6 6 6 7 7 7 7 7 7 7
6 6 6 6 6 7 7 7 7 7 7 6 6 6 6 6 6 6 6 6 6 6 6 6 6 6 6 6 6 6 6 6 6 6 6 6 6 7 7 7 7 8 8
6 6 6 6 7 7 7 7 7 7 7 7 7 6 6 7 7 6 7 6 6 6 6 6 6 6 6 6 6 6 6 6 6 6 6 6 6 6 6 7 7 7 8
7 7 7 7 7 7 7 7 7 7 7 7 7 7 6 7 7 7 7 6 6 6 6 5 6 6 5 5 5 5 6 6 6 5 6 6 6 6 7 7 7 7 7
7 7 7 7 7 7 7 7 7 7 7 7 7 7 7 7 7 7 7 6 6 6 6 5 5 6 5 5 5 5 5 5 5 5 5 5 6 6 6 7 7 7 7
7 7 7 7 7 7 7 7 8 8 8 8 7 8 7 7 7 7 7 6 6 6 6 5 5 5 5 5 5 5 5 5 5 5 5 5 5 6 6 6 7 7 7
8 7 8 8 8 8 8 8 8 8 8 8 8 8 8 7 7 7 7 7 6 6 6 6 5 5 5 5 5 5 5 5 5 5 5 5 5 5 6 6 6 7 7
8 8 8 8 8 8 8 8 8 8 8 8 8 8 8 8 8 7 7 7 7 6 6 6 6 6 5 5 5 5 5 5 5 5 5 5 5 5 5 6 6 6 7
Wind_Speed
8 8 8 8 8 8 8 8 7 7 7 7 7 7 7 6 6 6 6 6 6 6 6 7 7 8 7 6 6 7 7 8 11 9 8 8 7 6 7 6 7 7 8
7 8 9 8 8 9 9 8 8 8 7 7 8 8 8 8 7 8 8 8 8 9 9 9 10 9 9 8 7 9 9 9 12 13 10 9 8 6 6 5 5 5 6
7 8 9 9 9 9 9 9 9 9 9 9 9 10 9 9 9 9 10 10 10 10 10 11 11 11 11 9 9 10 9 10 11 12 11 8 7 6 6 5 5 4 5
8 9 9 9 9 9 9 9 9 10 10 10 10 10 10 10 10 11 11 12 12 12 12 12 12 11 11 11 10 11 11 12 11 10 10 8 7 6 5 5 5 4 3
8 9 9 8 9 9 9 10 10 10 11 11 11 11 11 10 10 10 11 13 13 14 14 14 14 14 13 10 10 11 11 10 10 9 9 8 7 6 4 4 4 4 4
8 8 8 8 9 9 9 10 10 11 11 11 12 12 12 11 13 14 10 12 13 14 14 13 14 15 16 16 15 13 10 8 9 7 8 8 7 5 3 2 3 3 4
8 8 8 9 9 9 9 10 11 11 11 11 12 12 12 12 13 14 12 12 13 13 12 11 12 12 13 14 14 13 13 12 7 5 8 7 6 5 3 3 2 1 2
8 8 8 8 9 9 9 10 9 9 10 10 11 11 11 11 12 11 10 12 13 13 12 12 11 11 10 10 12 12 11 9 7 7 7 6 6 4 2 2 2 2 3
8 7 7 8 8 9 9 10 9 9 9 10 10 11 11 10 11 10 7 11 11 13 12 12 11 12 9 6 10 11 10 8 10 11 9 7 6 3 2 1 2 2 2
7 7 7 8 8 9 9 9 8 8 9 10 10 10 10 10 11 12 8 9 10 11 11 11 14 11 9 8 8 9 9 8 7 7 6 5 5 4 1 3 3 2 1
7 8 8 8 8 9 9 8 8 8 9 10 10 10 10 9 10 13 12 7 8 9 9 9 9 10 10 9 6 8 6 3 5 5 5 5 4 4 3 1 3 4 4
8 8 8 8 7 8 8 8 8 8 9 9 9 9 8 8 9 10 12 11 8 9 8 9 8 8 9 8 7 5 2 4 3 4 4 4 3 3 3 3 2 3 3
8 9 8 8 7 7 7 8 7 6 7 7 8 8 8 8 8 8 9 9 9 7 8 9 6 4 6 7 6 1 3 1 4 4 4 4 4 3 1 1 1 1 4
8 8 8 8 8 7 5 6 6 6 6 6 7 7 7 7 6 5 6 7 7 7 7 7 5 2 4 5 4 2 3 5 4 4 4 3 2 1 1 2 2 2 2
8 8 8 8 8 7 8 7 7 8 7 6 6 6 6 8 7 9 6 6 5 5 2 4 5 5 5 5 5 4 3 3 3 3 3 2 2 2 2 2 2 3 3
8 7 7 7 6 7 8 8 13 10 11 12 12 9 8 9 7 7 8 7 5 5 2 4 4 4 4 4 4 3 3 3 3 3 3 3 3 3 3 3 3 4 4
8 7 6 7 7 6 7 7 8 7 8 9 9 9 8 6 5 4 3 2 1 5 1 4 4 3 3 3 3 3 3 3 3 3 3 3 3 3 4 4 4 5 5
8 7 6 6 6 6 6 6 7 7 7 6 6 6 5 4 2 0 2 4 2 1 3 3 3 3 2 2 2 2 2 2 2 3 3 4 4 4 4 4 4 5 6
7 6 6 6 6 6 6 6 6 6 6 6 6 6 5 5 4 3 5 2 3 3 3 3 2 2 2 2 2 2 2 2 3 3 3 4 4 5 5 5 5 4 6
7 6 4 5 6 6 5 5 5 5 5 5 4 4 5 5 3 4 2 1 2 3 3 3 3 2 2 2 1 1 1 2 2 3 3 4 4 5 5 6 6 6 6
8 8 6 5 6 5 5 4 4 4 5 4 4 5 4 0 2 3 2 2 2 2 2 2 1 1 1 1 2 2 3 3 3 4 4 4 5 5 6 6 6 6 7
7 7 6 6 6 5 5 4 4 4 4 4 4 6 3 2 1 2 2 2 2 1 1 1 2 1 2 3 3 3 3 3 3 4 5 5 5 5 6 6 6 6 7
7 6 6 6 5 6 5 4 4 4 4 3 3 3 3 1 1 1 1 1 1 0 0 1 2 2 1 1 2 4 4 4 4 5 5 6 6 5 5 6 7 7 7
6 6 6 6 6 6 5 4 4 4 3 3 2 2 1 1 1 0 1 1 1 1 2 2 2 2 2 2 3 3 2 3 5 6 6 6 7 6 6 6 7 8 8
7 6 5 5 5 5 5 4 4 3 3 3 2 2 2 1 1 2 2 2 2 3 3 3 3 3 3 4 4 2 2 2 5 6 8 8 7 7 7 8 8 8 9
7 7 6 5 5 5 4 4 4 4 3 3 3 2 2 2 2 2 2 2 3 3 4 4 4 4 4 5 4 3 3 4 6 7 8 9 8 7 8 8 10 9 10
Wind_Direction
55 56 59 57 56 57 59 58 54 55 54 55 54 53 51 51 58 68 73 77 85 86 88 93 101 108 117 123 126 127 125 124 127 132 134 137 144 144 144 147 147 157 144
63 65 64 61 60 62 63 61 60 59 58 60 62 61 58 58 62 72 77 80 83 86 87 90 96 103 104 108 113 114 116 124 131 134 138 143 144 144 144 159 153 163 145
70 71 68 65 64 64 65 64 63 65 64 62 63 65 63 63 68 73 77 80 81 83 86 91 94 99 101 105 110 113 117 121 127 134 136 138 144 144 154 157 149 157 154
72 72 70 67 68 70 71 69 66 67 69 68 65 66 67 67 69 74 79 80 81 81 81 82 85 92 99 105 107 112 116 121 127 131 134 141 142 151 164 158 153 158 164
78 76 73 74 75 75 75 73 71 69 70 70 69 67 67 67 62 68 79 82 84 84 82 80 79 78 72 80 101 110 117 123 129 132 136 140 138 155 155 155 150 157 152
85 83 82 81 79 78 78 78 76 73 71 69 68 67 65 64 48 46 63 82 83 86 88 89 92 88 84 75 73 75 84 109 119 128 129 126 130 133 122 147 153 168 151
90 87 85 84 84 83 84 82 79 78 76 75 73 73 72 61 49 51 51 77 82 82 85 88 90 94 97 99 94 92 76 64 69 90 108 109 118 110 125 136 106 71 68
93 91 90 90 90 89 88 85 82 80 79 79 79 79 78 64 47 50 56 82 82 83 84 86 89 89 86 94 102 97 94 82 75 86 93 93 96 99 110 113 139 173 178
97 94 93 93 95 97 94 92 90 88 85 84 82 81 79 68 43 34 43 92 87 82 80 78 86 89 61 54 100 101 99 99 86 81 80 83 78 62 338 235 191 209 145
98 95 93 93 94 97 98 98 96 93 90 87 81 79 78 71 43 28 21 93 93 94 91 84 69 67 48 34 93 101 102 102 108 117 118 135 138 143 221 303 340 356 33
102 100 96 94 95 97 98 99 103 100 95 92 89 83 78 71 62 40 28 69 87 92 93 89 77 58 53 38 50 83 81 87 120 129 132 133 137 141 147 99 357 342 356
110 107 102 100 98 98 100 101 103 105 104 102 96 90 86 78 64 58 47 41 39 85 86 88 87 75 68 53 64 69 327 278 124 115 107 103 95 83 68 44 21 349 336
115 109 105 100 96 101 107 109 109 108 106 108 106 100 96 95 94 86 75 60 44 71 79 77 86 111 130 101 90 7 274 95 83 86 82 77 73 62 48 124 172 237 251
115 114 112 109 107 101 96 95 96 95 96 102 98 100 103 100 89 92 111 116 125 113 106 120 136 93 105 102 138 126 69 57 50 67 64 59 59 65 28 20 1 322 297
118 116 116 111 106 98 81 59 68 62 51 62 81 93 93 89 58 27 31 61 63 70 96 128 126 122 112 101 93 84 83 87 66 53 46 39 35 29 18 10 338 324 326
127 126 123 120 115 112 109 95 58 62 65 57 44 43 77 75 71 55 53 49 34 341 322 102 97 92 88 91 93 95 85 62 45 36 31 28 19 8 1 349 337 333 329
129 128 127 123 124 120 119 121 116 96 80 73 62 55 63 76 73 69 71 63 301 294 91 88 84 76 72 70 72 73 69 57 22 10 14 9 359 354 349 345 349 344 335
130 128 130 127 129 128 128 129 129 129 128 120 104 92 96 100 96 84 277 263 176 166 77 76 81 79 69 51 47 46 43 45 25 3 2 354 348 340 339 342 348 349 335
136 132 128 127 131 128 129 125 120 118 118 121 129 135 153 170 184 230 262 267 77 77 72 70 66 60 53 49 40 34 7 0 1 336 342 342 337 330 332 333 332 331 304
122 105 134 138 135 137 136 130 127 127 126 127 131 124 148 181 160 147 159 73 63 66 56 62 61 46 31 20 12 342 321 324 315 306 325 325 324 322 322 322 323 322 320
138 139 168 161 142 138 138 133 133 135 131 133 120 86 1 58 97 95 100 91 64 61 57 39 50 49 7 326 342 343 323 322 323 320 318 317 316 315 312 311 312 315 320
144 150 156 141 138 139 138 143 143 139 137 136 133 141 196 245 103 96 94 90 84 70 54 350 337 17 8 354 349 321 317 321 325 328 317 311 307 306 307 309 313 317 317
149 149 147 145 144 144 171 157 150 151 149 147 146 149 171 168 112 97 94 107 129 133 274 273 293 318 20 10 327 315 325 342 341 335 316 307 306 305 305 308 309 310 315
157 159 158 158 163 171 167 161 166 166 165 164 170 175 172 194 257 247 239 225 224 228 239 256 283 316 312 288 277 280 351 354 330 314 309 304 303 306 308 308 306 313 315
168 168 167 168 173 175 174 174 172 175 181 188 194 200 203 212 217 216 214 219 230 240 241 250 258 262 263 263 269 298 48 329 305 306 302 290 292 297 300 302 304 309 311
174 173 176 176 181 185 187 189 189 194 202 204 210 214 225 229 224 225 223 229 239 232 239 246 246 254 253 249 239 224 233 261 274 283 287 286 289 294 305 303 304 303 304
Height
1523 1522 1521 1520 1519 1519 1518 1518 1518 1517 1517 1516 1515 1515 1514 1513 1513 1514 1514 1514 1515 1516 1517 1519 1520 1522 1525 1527 1530 1534 1537 1541 1544 1551 1556 1560 1563 1566 1568 1570 1572 1573 1573
1525 1524 1523 1522 1522 1521 1520 1520 1519 1519 1518 1518 1517 1516 1515 1515 1515 1515 1515 1516 1516 1517 1519 1520 1521 1524 1526 1529 1532 1535 1538 1542 1546 1550 1556 1560 1563 1566 1568 1570 1572 1574 1574
1527 1526 1525 1525 1524 1523 1522 1522 1522 1521 1520 1520 1519 1519 1518 1517 1517 1518 1518 1518 1518 1520 1521 1522 1524 1526 1529 1531 1534 1537 1541 1544 1548 1552 1557 1561 1564 1566 1569 1571 1572 1573 1574
1529 1528 1527 1527 1526 1526 1525 1524 1524 1524 1523 1523 1522 1522 1521 1521 1521 1521 1521 1521 1521 1522 1524 1526 1528 1530 1532 1535 1537 1540 1543 1547 1551 1555 1559 1562 1565 1567 1569 1571 1573 1573 1574
1531 1530 1529 1529 1529 1528 1528 1528 1527 1527 1527 1526 1526 1525 1525 1525 1525 1525 1525 1526 1526 1527 1528 1530 1532 1534 1536 1539 1541 1544 1547 1550 1554 1557 1560 1563 1566 1568 1570 1571 1572 1573 1573
1534 1533 1532 1532 1531 1531 1531 1531 1530 1530 1530 1530 1530 1529 1529 1528 1529 1529 1530 1531 1531 1532 1533 1536 1538 1540 1541 1543 1545 1548 1551 1554 1557 1560 1562 1564 1567 1569 1570 1571 1572 1573 1573
1536 1536 1535 1535 1534 1534 1534 1534 1534 1534 1534 1534 1534 1534 1533 1534 1534 1534 1535 1536 1537 1538 1540 1542 1544 1546 1548 1549 1551 1553 1555 1557 1560 1562 1564 1565 1567 1568 1570 1571 1571 1572 1572
1538 1538 1538 1538 1537 1537 1537 1538 1538 1538 1538 1538 1539 1539 1539 1539 1540 1540 1540 1542 1543 1544 1545 1547 1549 1551 1553 1554 1556 1557 1559 1560 1562 1564 1565 1566 1568 1568 1569 1571 1571 1571 1571
1540 1541 1541 1541 1541 1541 1541 1541 1542 1542 1543 1543 1543 1544 1544 1544 1545 1545 1546 1548 1548 1549 1551 1552 1554 1555 1556 1558 1559 1560 1562 1563 1564 1565 1566 1567 1568 1569 1570 1571 1572 1572 1572
1543 1543 1543 1543 1544 1544 1544 1545 1546 1546 1547 1548 1548 1548 1549 1549 1550 1551 1551 1553 1553 1554 1555 1557 1558 1559 1560 1561 1563 1564 1565 1566 1567 1568 1569 1569 1570 1570 1571 1571 1572 1572 1572
1545 1545 1546 1546 1546 1547 1547 1548 1549 1551 1551 1552 1552 1553 1553 1554 1555 1555 1556 1557 1558 1559 1560 1561 1562 1563 1564 1564 1565 1566 1567 1568 1570 1570 1571 1572 1572 1572 1573 1572 1572 1572 1572
1547 1548 1548 1549 1550 1550 1551 1552 1553 1554 1555 1555 1556 1557 1558 1558 1559 1559 1560 1560 1561 1563 1564 1565 1565 1566 1567 1567 1568 1569 1569 1570 1572 1573 1573 1573 1573 1574 1573 1573 1572 1572 1571
1550 1550 1551 1552 1553 1554 1554 1555 1557 1558 1559 1560 1560 1561 1562 1563 1563 1564 1564 1564 1565 1565 1566 1567 1568 1569 1570 1570 1571 1571 1572 1573 1574 1574 1574 1574 1574 1574 1574 1573 1573 1572 1571
1551 1552 1553 1554 1556 1557 1558 1559 1560 1561 1562 1563 1564 1565 1566 1567 1567 1568 1568 1569 1569 1569 1570 1570 1571 1571 1572 1572 1573 1574 1574 1575 1575 1575 1575 1575 1575 1575 1574 1574 1573 1572 1572
1554 1555 1556 1557 1558 1559 1560 1561 1563 1563 1564 1566 1567 1568 1569 1569 1569 1569 1570 1571 1571 1572 1573 1574 1574 1575 1575 1575 1576 1576 1576 1576 1576 1576 1576 1576 1575 1575 1574 1574 1573 1572 1571
1556 1557 1559 1560 1561 1563 1564 1564 1565 1566 1567 1568 1569 1570 1571 1571 1572 1572 1572 1573 1573 1573 1574 1575 1576 1576 1576 1577 1577 1577 1577 1577 1577 1577 1577 1576 1576 1575 1574 1574 1573 1572 1571
1558 1559 1561 1562 1564 1565 1566 1567 1568 1569 1570 1571 1572 1572 1573 1574 1574 1574 1575 1575 1575 1575 1576 1577 1577 1577 1578 1578 1578 1578 1578 1578 1578 1578 1577 1577 1576 1575 1574 1573 1572 1571 1570
1560 1561 1563 1564 1566 1567 1569 1570 1571 1572 1573 1574 1574 1575 1575 1576 1576 1576 1576 1577 1578 1578 1578 1578 1578 1578 1578 1579 1579 1579 1578 1578 1578 1578 1577 1577 1576 1575 1574 1573 1572 1571 1569
1562 1564 1565 1567 1568 1569 1571 1572 1573 1574 1575 1576 1576 1577 1577 1577 1577 1578 1578 1579 1579 1579 1579 1579 1579 1579 1579 1579 1578 1578 1578 1578 1578 1578 1577 1576 1576 1575 1574 1573 1571 1570 1569
1564 1565 1567 1569 1570 1571 1572 1573 1574 1575 1576 1577 1578 1579 1579 1579 1579 1579 1579 1580 1580 1580 1579 1579 1579 1579 1579 1578 1578 1578 1578 1578 1577 1577 1577 1576 1575 1574 1573 1572 1571 1569 1568
1566 1567 1568 1570 1571 1573 1574 1575 1575 1576 1577 1578 1579 1579 1579 1580 1580 1580 1580 1580 1580 1580 1580 1579 1579 1579 1579 1578 1578 1578 1577 1577 1577 1576 1576 1575 1574 1573 1572 1571 1570 1568 1567
1567 1569 1570 1571 1573 1574 1575 1576 1577 1577 1578 1579 1579 1579 1579 1580 1581 1581 1580 1580 1580 1580 1579 1579 1579 1579 1578 1578 1577 1577 1577 1576 1575 1574 1574 1573 1573 1572 1571 1570 1569 1567 1566
1568 1570 1571 1572 1573 1574 1575 1576 1577 1578 1579 1579 1580 1580 1580 1581 1581 1580 1580 1580 1579 1579 1579 1578 1578 1578 1577 1576 1575 1575 1575 1574 1573 1572 1571 1572 1571 1571 1570 1569 1568 1566 1565
1569 1570 1571 1572 1573 1574 1575 1576 1577 1578 1579 1579 1580 1580 1580 1580 1580 1580 1580 1579 1579 1578 1578 1577 1577 1577 1575 1575 1574 1574 1573 1572 1571 1571 1570 1570 1570 1569 1569 1568 1566 1565 1563
1569 1570 1571 1572 1573 1574 1575 1576 1577 1578 1578 1579 1579 1579 1579 1579 1579 1579 1579 1578 1578 1577 1577 1577 1576 1575 1574 1574 1573 1572 1571 1570 1569 1569 1568 1568 1568 1567 1567 1566 1564 1563 1561
1568 1569 1570 1571 1572 1573 1574 1575 1576 1577 1577 1578 1578 1578 1578 1578 1578 1578 1578 1577 1577 1577 1576 1576 1575 1574 1573 1572 1571 1570 1569 1569 1568 1567 1566 1566 1566 1566 1565 1563 1562 1560 1559